Regional Weather Roundup
Issued by NWS Portland, ME

Current Version | Previous Version | Text Only | Print | Product List | Glossary Off
Versions: 1 2 3 4 5 6 7 8 9 10 11 12 13 14 15 16 17 18 19 20 21 22 23 24 25 26 27 28 29 30 31 32 33 34 35 36 37 38 39 40 41 42 43 44 45 46 47 48 49 50
000 ASUS41 KGYX 181910 RWRGYX WEATHER ROUNDUP FOR MAINE AND NEW HAMPSHIRE NATIONAL WEATHER SERVICE GRAY ME 200 PM EST FRI JAN 18 2019 MEZ002-005-006-010-012-015-018-020-021-024-026-027-029-182000- MAINE CITY SKY/WX TMP DP RH WIND PRES REMARKS PORTLAND CLOUDY 30 15 53 CALM 30.03F SANFORD CLOUDY 33 20 58 S3 30.01F BAR HARBOR MIX PCPN 31 24 75 S15 30.05F WISCASSET CLOUDY 31 22 69 CALM 30.04F ROCKLAND LGT RAIN 34 27 75 S13 30.03F FRYEBURG FLURRIES 24 14 65 CALM 30.00F LEWISTONAUBURN CLOUDY 23 10 57 CALM 30.02F AUGUSTA CLOUDY 26 15 63 CALM 30.02F WATERVILLE CLOUDY 24 14 65 MISG 29.99F BANGOR LGT SNOW 29 27 92 S8 30.02F VSB 3/4 GREENVILLE N/A 19 12 74 VRB6 29.87F MILLINOCKET SNOW 20 16 84 SE5 30.01F VSB 1/2 HOULTON LGT SNOW 25 20 81 VRB6 29.97F VSB 3/4 PRESQUE ISLE LGT SNOW 18 12 79 SE9 29.96F FRENCHVILLE LGT SNOW 16 9 74 S10 29.89F WCI 4 CARIBOU LGT SNOW 17 11 77 S12 29.94F WCI 4 $$ NHZ002-005-008-009-011-012-014-182000- NEW HAMPSHIRE CITY SKY/WX TMP DP RH WIND PRES REMARKS PORTSMOUTH PTSUNNY 37 22 56 SW6 30.00F ROCHESTER CLOUDY 33 22 63 VRB3 30.01F NASHUA PTSUNNY 35 23 61 VRB5 30.02F MANCHESTER PTSUNNY 33 19 56 SW5 30.01F CONCORD CLOUDY 30 21 69 S7 30.01F LACONIA CLOUDY 22 13 68 CALM 30.00F PLYMOUTH FLURRIES 22 16 78 CALM 30.01S BERLIN FLURRIES 29 20 69 S8 29.89F WHITEFIELD LGT SNOW 26 22 84 CALM 29.91F FOG JAFFREY CLOUDY 32 26 78 S7 29.96F KEENE MIX PCPN 31 22 69 W3 29.99F LEBANON LGT SNOW 28 20 71 S9 29.96F MT WASHINGTON SNOWSHWR 10 10 100 SW46G53 N/A VSB 1/16WCI -16 $$ VTZ005-007-008-182000- VERMONT CITY SKY/WX TMP DP RH WIND PRES REMARKS ST JOHNSBURY N/A 25 20 81 MISG 29.92F MONTPELIER LGT SNOW 25 20 81 S15 29.93F WCI 13 BURLINGTON CLOUDY 30 22 72 S13G22 29.93F WCI 20 $$ MAZ007-012-024-CTZ003-RIZ002-NYZ038-NYZ072-182000- SOUTHERN NEW ENGLAND AND NY CITY SKY/WX TMP DP RH WIND PRES REMARKS BOSTON PTSUNNY 40 29 64 SE5 30.03F WORCESTER CLOUDY 33 26 75 SW7 29.98F NANTUCKET CLOUDY 40 37 89 NE10 30.02F PROVIDENCE PTSUNNY 38 31 76 S7 30.04F HARTFORD PTSUNNY 36 26 67 S8 30.03F ALBANY FLURRIES 32 25 75 S12 30.00F NEW YORK CITY CLOUDY 37 32 82 E6 30.05F $$ ANZ081-ANZ082-ANZ150-NHZ014-MEZ023>029-182000- COASTAL MARINE OBSERVATIONS STATION/POSITION TIME TEMP WIND PRES WAVE AIR SEA DIR/SP/G HT/PER (UTC) (F) (DEG/KT/KT) (MB) (FT/S) MOUNT DESERT ROC 1900 32 130/ 23/ 25 1018.0F MATINICUS ROCK 1800 36 160/ 25/ 28 1017.0F ISLE OF SHOALS 1800 36 180/ 12/ 14 1016.9F JEFFREYS LEDGE 1838 44 N/A 3/ 4 CASHES LEDGE BUO 1850 36 40 1017.5F 4/ 5 $$ .............KEY.............. WCI - WIND CHILL TC - TEMPERATURE IN CELSIUS VSB - VISIBILITY IN MILES HX - HEAT INDEX FAIR- INDICATES FEW OR NO CLOUDS BELOW 12,000 FT, WITH NO SIGNIFICANT WEATHER AND/OR OBSTRUCTIONS TO VISIBILITY.

USA.gov is the U.S. government's official web portal to all federal, state and local government web resources and services.